TimeMDT,TemperatureF,Dew PointF,Humidity,Sea Level PressureIn,VisibilityMPH,Wind Direction,Wind SpeedMPH,Gust SpeedMPH,PrecipitationIn,Events,Conditions,WindDirDegrees,DateUTC
12:53 AM,78.1,55.9,46,29.74,10.0,WSW,9.2,-,N/A,,Clear,240,2013-07-06 06:53:00
1:53 AM,75.9,57.0,52,29.71,10.0,West,13.8,-,N/A,,Clear,270,2013-07-06 07:53:00
2:53 AM,73.9,57.0,55,29.71,10.0,SW,8.1,-,N/A,,Clear,220,2013-07-06 08:53:00
3:53 AM,72.0,57.0,59,29.72,10.0,Calm,Calm,-,N/A,,Clear,0,2013-07-06 09:53:00
4:53 AM,71.1,57.0,61,29.71,10.0,WSW,4.6,-,N/A,,Clear,240,2013-07-06 10:53:00
5:53 AM,68.0,55.9,65,29.72,10.0,SSW,3.5,-,N/A,,Clear,200,2013-07-06 11:53:00
6:53 AM,69.1,57.0,65,29.74,10.0,Calm,Calm,-,N/A,,Clear,0,2013-07-06 12:53:00
7:53 AM,75.9,55.9,50,29.74,10.0,Calm,Calm,-,N/A,,Clear,0,2013-07-06 13:53:00
8:53 AM,78.1,55.0,45,29.75,10.0,WSW,5.8,-,N/A,,Clear,240,2013-07-06 14:53:00
9:53 AM,82.9,53.1,36,29.75,10.0,Variable,3.5,-,N/A,,Clear,0,2013-07-06 15:53:00
10:53 AM,88.0,52.0,29,29.73,10.0,Variable,3.5,-,N/A,,Clear,0,2013-07-06 16:53:00
11:53 AM,90.0,48.9,24,29.72,10.0,Variable,4.6,-,N/A,,Clear,0,2013-07-06 17:53:00
12:53 PM,91.9,48.9,23,29.70,10.0,Variable,3.5,-,N/A,,Clear,0,2013-07-06 18:53:00
1:53 PM,96.1,48.9,20,29.67,10.0,South,5.8,-,N/A,,Clear,190,2013-07-06 19:53:00
2:53 PM,93.9,46.9,20,29.65,10.0,Variable,5.8,-,N/A,,Clear,0,2013-07-06 20:53:00
3:53 PM,98.1,45.0,16,29.62,10.0,SW,4.6,-,N/A,,Clear,220,2013-07-06 21:53:00
4:53 PM,99.0,46.0,16,29.60,10.0,Variable,5.8,-,N/A,,Clear,0,2013-07-06 22:53:00
5:53 PM,99.0,44.1,15,29.58,10.0,Variable,3.5,-,N/A,,Partly Cloudy,0,2013-07-06 23:53:00
6:53 PM,98.1,46.0,17,29.58,10.0,NNW,9.2,-,N/A,,Scattered Clouds,330,2013-07-07 00:53:00
7:08 PM,96.8,46.4,18,29.84,10.0,North,4.6,-,N/A,Thunderstorm,Partly Cloudy,10,2013-07-07 01:08:00
7:50 PM,91.4,48.2,23,29.88,10.0,WNW,11.5,24.2,N/A,,Clear,300,2013-07-07 01:50:00
7:53 PM,91.9,48.9,23,29.62,10.0,WNW,10.4,21.9,N/A,,Clear,300,2013-07-07 01:53:00
8:16 PM,91.4,48.2,23,29.89,10.0,West,9.2,20.7,N/A,Thunderstorm,Thunderstorm,260,2013-07-07 02:16:00
8:50 PM,89.6,48.2,24,29.91,10.0,WSW,13.8,-,N/A,Thunderstorm,Thunderstorm,250,2013-07-07 02:50:00
8:53 PM,89.1,48.9,25,29.65,10.0,WSW,12.7,-,0.00,Rain-Thunderstorm,Light Thunderstorms and Rain,250,2013-07-07 02:53:00
9:53 PM,82.9,55.0,38,29.68,8.0,SSE,11.5,20.7,0.04,Thunderstorm,Overcast,160,2013-07-07 03:53:00
10:42 PM,84.2,55.4,37,29.93,10.0,NNE,8.1,-,0.02,,Partly Cloudy,20,2013-07-07 04:42:00
10:53 PM,82.9,55.0,38,29.67,10.0,West,5.8,-,0.02,,Partly Cloudy,280,2013-07-07 04:53:00
11:53 PM,84.9,52.0,32,29.69,9.0,SSW,19.6,47.2,0.00,Rain,Light Rain,210,2013-07-07 05:53:00